Miscellaneous Local Product
Issued by NWS North Platte, NE

Home | Current Version | Previous Version | Text Only | Print | Product List | Glossary On
Versions: 1 2 3 4 5 6 7 8 9 10 11 12 13 14 15 16 17 18 19 20 21 22 23 24 25 26 27 28 29 30 31 32 33 34 35 36 37 38 39 40 41 42 43 44 45 46 47 48 49 50
000
AXUS43 KLBF 291710
MISLBF


WESTERN AND NORTH CENTRAL NEBRASKA HOURLY WEATHER ROUNDUP
NATIONAL WEATHER SERVICE NORTH PLATTE NE
1200 PM CDT FRI APR 29 2016

NOTE: "FAIR" INDICATES FEW OR NO CLOUDS BELOW 12,000 FEET WITH NO
SIGNIFICANT WEATHER AND/OR OBSTRUCTIONS TO VISIBILITY.

NOTE: STATIONS NOT REPORTING VARIABLES SUCH AS SKY/WEATHER OR
PRESSURE ARE PROVIDED BY RAWS AND APRS NETWORKS AND ARE NOT UNDER
NATIONAL WEATHER SERVICE QUALITY CONTROL.

...OBSERVATIONS IN AND NEAR THE EASTERN PANHANDLE OF NEBRASKA...

CITY           SKY/WX    TMP DP  RH WIND       PRES   REMARKS
PINE RIDGE     CLOUDY    40  35  83 NE13      30.04F WCI  32
CHADRON        CLOUDY    42  35  76 NE12      30.03F
ALLIANCE       CLOUDY    45  36  70 NE10      30.01R
SIDNEY         CLOUDY    41  34  76 E12       30.01R
CRESCENT LAKE    N/A     43  35  73 NE9         N/A
BIG SPRINGS      N/A     43  37  79 E8          N/A
$$

...OBSERVATIONS IN NORTHERN NEBRASKA AND FAR SOUTHERN SOUTH DAKOTA...

CITY           SKY/WX    TMP DP  RH WIND       PRES   REMARKS
WINNER         CLOUDY    42  36  79 E12       30.09R
VALENTINE      CLOUDY    43  36  76 NE15      30.05S
THEDFORD       CLOUDY    42  39  88 NE8       30.07R
AINSWORTH      CLOUDY    40  38  93 NE12      30.07R WCI  33
O`NEILL        CLOUDY    41  38  92 E10       30.10R FOG
ORD            CLOUDY    42  39  89 E12       30.07S
BROKEN BOW     CLOUDY    44  38  79 E13       30.06S
VALENTINE NWR    N/A     40  38  92 N8G16       N/A  WCI  34
BUTTE            N/A     39  37  92 NE12G18     N/A  WCI  32
HALSEY           N/A     42  37  84 NE6         N/A
CHAMBERS         N/A     41  38  87 E5G12       N/A
EWING            N/A     41  39  93 E9          N/A
$$

...OBSERVATIONS IN SOUTHWEST NEBRASKA AND FAR NORTHEAST COLORADO...

CITY           SKY/WX    TMP DP  RH WIND       PRES   REMARKS
IMPERIAL       CLOUDY    42  36  79 NE16      30.02S
OGALLALA       CLOUDY    42  34  72 NE13      30.04R
NORTH PLATTE   CLOUDY    43  36  76 E10       30.05R
MCCOOK         CLOUDY    44  36  73 E16G25    30.02S
LEXINGTON      CLOUDY    43  38  80 E16       30.05F
PAXTON           N/A     41  38  89 N9          N/A
STAPLETON        N/A     41  37  84 NE5         N/A
GOTHENBURG       N/A     43  35  74 E8          N/A
CALLAWAY         N/A     41  38  89 E7          N/A
$$

...OBSERVATIONS IN CENTRAL LINCOLN COUNTY AREA...

CITY           SKY/WX    TMP DP  RH WIND       PRES   REMARKS
N.P. AIRPORT   CLOUDY    43  36  76 E10       30.05R
N.P. DOWNTOWN    N/A     42  36  80 E7          N/A
N.P. SOUTHEAST   N/A     42  36  78 MISG        N/A
N.P. HILLCREST   N/A     43  37  80 E12         N/A
$$

...SOME OBSERVATIONS FROM AROUND THE REGION...

CITY           SKY/WX    TMP DP  RH WIND       PRES   REMARKS
DENVER         SNOW      33  30  88 NE5       29.94F VSB 1/4 WCI  29
LARAMIE        CLOUDY    32  27  81 SE16      29.90R WCI  21
CHEYENNE       LGT SNOW  33  32  96 SE6       29.95S FOG     WCI  28
SCOTTSBLUFF    CLOUDY    42  34  73 NE9       30.01R
RAPID CITY     CLOUDY    40  34  79 E8        30.09S WCI  34
BISMARCK       SUNNY     55  30  38 NE10      30.16F
PIERRE         PTSUNNY   51  36  56 E16       30.10R
SIOUX FALLS    CLOUDY    44  38  79 E12       30.14R
OMAHA          CLOUDY    48  39  71 NE12      30.08F
GRAND ISLAND   CLOUDY    45  38  76 E12       30.07F
KANSAS CITY    CLOUDY    54  45  71 NE14      30.02F
WICHITA        RAIN      49  46  90 NE21G33   29.89S FOG
OKLAHOMA CITY  CLOUDY    63  61  93 E17       29.72F
DALLAS         PTSUNNY   80  72  76 SE12      29.69F
AMARILLO       CLOUDY    52  47  83 NE18      29.77S
DODGE CITY     HVY RAIN  41  40  96 N18       29.93R FOG
HAYS           CLOUDY    43  34  70 NE14      29.98F
GOODLAND       LGT RAIN  40  38  93 NE21      29.93F WCI  30
$$




USA.gov is the U.S. government's official web portal to all federal, state and local government web resources and services.